Satellite-Ground Cal/Val Site Overpasses Predictions

Prediction of Satellite NPP Overpassing Cal/Val Site: Antarctic Dome C

Ground Cal/Val Site Location: Latitude: -75.10, Longitude: 123.35; Satellite-Ground Site NADIR distance within 100 km.

Table of predicted overpasses for the next 14.0 days since TLE Epoch: 11/22/2019
Interval Starting Time Ending Time Minimum Distance Time Minimum Distance (km)
1 11/24/2019 15:01:15 11/24/2019 15:01:39 11/24/2019 15:01:27 57.29
2 11/25/2019 14:42:25 11/25/2019 14:42:50 11/25/2019 14:42:38 51.94
3 11/26/2019 07:44:06 11/26/2019 07:44:25 11/26/2019 07:44:15 72.92
4 11/27/2019 07:25:12 11/27/2019 07:25:40 11/27/2019 07:25:26 34.99
5 11/29/2019 15:07:37 11/29/2019 15:07:46 11/29/2019 15:07:42 94.97
6 11/30/2019 14:48:36 11/30/2019 14:49:05 11/30/2019 14:48:51 16.42
7 12/02/2019 07:31:25 12/02/2019 07:31:54 12/02/2019 07:31:39 2.18
8 12/05/2019 14:54:50 12/05/2019 14:55:19 12/05/2019 14:55:05 20.10


NCC Satellite Cal/Val Overpasses Prediction Service
